Location: Unspecified
(17.6330°N, 0.0000°E)
Time: 20:32:46
(UTC+00:00)

A-11 Canister half - Pass Details

Date: 17 June 2019
Orbit: 1514 x 1685 km, 47.2° (Epoch: 18 July)

Event Time Altitude Azimuth Distance (km) Brightness Sun altitude
Rises 09:05:16 0° 208° (SSW) 4,928 11.4 48.6°
Reaches altitude 10° 09:08:33 10° 203° (SSW) 3,937 11.0 49.4°
Maximum altitude 09:18:18 54° 129° (SE) 1,958 10.8 51.6°
Drops below altitude 10° 09:27:48 10° 55° (NE) 3,850 11.8 53.8°
Sets 09:30:58 0° 51° (NE) 4,814 12.1 54.5°
